BKN3676 KSFO-KCLE

Flight info

Callsign BKN3676
Flight time N/A
Altitude 33000
Route TRUKN2 TIPRE Q126 BASNN OBH IOW J60 JOT ZIINE BENJO BRWNZ4
Aircraft B39M/M-SDE2E3FGHIRWXY/LB1

Departure

Time 2026-05-06 19:09
Airport San Francisco International Airport (KSFO)

Arrival

Time N/A
Airport Cleveland Hopkins International Airport (KCLE)
Time Latitude Longitude Altitude Speed Heading
2026-05-06 18:00 37.61306 -122.38360 23 ft 0 kts 298°
2026-05-06 18:59 37.61304 -122.38356 23 ft 2 kts 299°
2026-05-06 18:59 37.61297 -122.38339 23 ft 2 kts 300°
2026-05-06 18:59 37.61290 -122.38323 23 ft 2 kts 299°
2026-05-06 18:59 37.61284 -122.38311 23 ft 1 kts 297°
2026-05-06 19:00 37.61279 -122.38303 23 ft 1 kts 354°
2026-05-06 19:00 37.61270 -122.38307 23 ft 1 kts 39°
2026-05-06 19:00 37.61268 -122.38310 23 ft 0 kts 37°
2026-05-06 19:02 37.61276 -122.38302 23 ft 5 kts 37°
2026-05-06 19:03 37.61316 -122.38245 23 ft 11 kts 68°
2026-05-06 19:03 37.61371 -122.38161 23 ft 14 kts 37°
2026-05-06 19:03 37.61394 -122.38062 23 ft 14 kts 116°
2026-05-06 19:03 37.61342 -122.37933 23 ft 18 kts 117°
2026-05-06 19:04 37.61277 -122.37776 23 ft 22 kts 117°
2026-05-06 19:04 37.61233 -122.37585 23 ft 23 kts 79°
2026-05-06 19:04 37.61338 -122.37441 23 ft 24 kts 28°
2026-05-06 19:04 37.61488 -122.37343 23 ft 21 kts 33°
2026-05-06 19:05 37.61557 -122.37217 23 ft 17 kts 82°
2026-05-06 19:05 37.61530 -122.37060 23 ft 19 kts 116°
2026-05-06 19:05 37.61455 -122.36908 23 ft 21 kts 131°
2026-05-06 19:05 37.61360 -122.36762 23 ft 22 kts 123°
2026-05-06 19:06 37.61283 -122.36584 23 ft 22 kts 117°
2026-05-06 19:06 37.61211 -122.36415 23 ft 20 kts 120°
2026-05-06 19:06 37.61147 -122.36269 23 ft 18 kts 120°
2026-05-06 19:06 37.61091 -122.36137 23 ft 16 kts 116°
2026-05-06 19:07 37.61049 -122.36017 23 ft 12 kts 101°
2026-05-06 19:07 37.61093 -122.35906 23 ft 18 kts 29°
2026-05-06 19:07 37.61215 -122.35828 23 ft 19 kts 26°
2026-05-06 19:07 37.61325 -122.35754 23 ft 16 kts 28°
2026-05-06 19:08 37.61387 -122.35796 23 ft 11 kts 297°
2026-05-06 19:08 37.61470 -122.36005 23 ft 55 kts 297°
2026-05-06 19:08 37.61756 -122.36680 23 ft 116 kts 299°
2026-05-06 19:08 37.62214 -122.37773 23 ft 165 kts 298°
2026-05-06 19:09 37.62795 -122.39157 274 ft 186 kts 298°
2026-05-06 19:09 37.63428 -122.40576 939 ft 188 kts 311°
2026-05-06 19:09 37.64489 -122.41569 1492 ft 197 kts 337°
2026-05-06 19:09 37.65875 -122.42023 1872 ft 215 kts
2026-05-06 19:10 37.67333 -122.41608 2277 ft 226 kts 29°
2026-05-06 19:10 37.68577 -122.40233 2423 ft 252 kts 59°
2026-05-06 19:10 37.69199 -122.38126 2915 ft 262 kts 78°
2026-05-06 19:10 37.69525 -122.35914 3795 ft 256 kts 78°
2026-05-06 19:11 37.69861 -122.33659 4294 ft 265 kts 78°
2026-05-06 19:11 37.70214 -122.31393 5072 ft 264 kts 77°
2026-05-06 19:11 37.70568 -122.29132 5761 ft 266 kts 77°
2026-05-06 19:11 37.70927 -122.26849 6443 ft 267 kts 77°
2026-05-06 19:12 37.71289 -122.24538 7063 ft 271 kts 76°
2026-05-06 19:12 37.71688 -122.22212 7662 ft 274 kts 71°
2026-05-06 19:12 37.72426 -122.20040 8262 ft 275 kts 57°
2026-05-06 19:12 37.73480 -122.18027 8851 ft 277 kts 53°
2026-05-06 19:13 37.74586 -122.15989 9434 ft 281 kts 54°
2026-05-06 19:13 37.75662 -122.13944 10002 ft 284 kts 54°
2026-05-06 19:13 37.76764 -122.11823 10414 ft 294 kts 55°
2026-05-06 19:13 37.77902 -122.09629 10696 ft 308 kts 55°
2026-05-06 19:14 37.79105 -122.07304 11005 ft 320 kts 56°
2026-05-06 19:14 37.80335 -122.04926 11249 ft 334 kts 56°
2026-05-06 19:14 37.81635 -122.02408 11478 ft 347 kts 56°
2026-05-06 19:14 37.82931 -121.99748 11623 ft 363 kts 59°
2026-05-06 19:15 37.84127 -121.96886 11778 ft 377 kts 62°
2026-05-06 19:15 37.85292 -121.93909 12288 ft 379 kts 63°
2026-05-06 19:15 37.86452 -121.90926 12798 ft 381 kts 63°
2026-05-06 19:15 37.87631 -121.87920 13334 ft 382 kts 62°
2026-05-06 19:16 37.88818 -121.84907 13842 ft 384 kts 63°
2026-05-06 19:16 37.90010 -121.81883 14284 ft 388 kts 62°
2026-05-06 19:16 37.91217 -121.78828 14781 ft 389 kts 62°
2026-05-06 19:16 37.92422 -121.75777 15245 ft 391 kts 62°
2026-05-06 19:17 37.93635 -121.72702 15650 ft 395 kts 62°
2026-05-06 19:17 37.94859 -121.69596 16120 ft 396 kts 62°
2026-05-06 19:17 37.96094 -121.66466 16566 ft 399 kts 62°
2026-05-06 19:17 37.97344 -121.63291 16958 ft 402 kts 62°
2026-05-06 19:18 37.98576 -121.60157 17398 ft 404 kts 62°
2026-05-06 19:18 37.99844 -121.56928 17752 ft 408 kts 62°
2026-05-06 19:18 38.01092 -121.53745 18228 ft 409 kts 62°
2026-05-06 19:18 38.02362 -121.50505 18607 ft 412 kts 62°
2026-05-06 19:19 38.03641 -121.47237 18883 ft 417 kts 62°
2026-05-06 19:19 38.04937 -121.43924 18912 ft 417 kts 62°
2026-05-06 19:19 38.06231 -121.40610 19150 ft 420 kts 62°
2026-05-06 19:19 38.07513 -121.37324 19720 ft 418 kts 62°
2026-05-06 19:20 38.08810 -121.34000 20036 ft 422 kts 62°
2026-05-06 19:20 38.10107 -121.30673 20417 ft 425 kts 62°
2026-05-06 19:20 38.11418 -121.27308 20802 ft 427 kts 62°
2026-05-06 19:20 38.12727 -121.23941 21081 ft 432 kts 62°
2026-05-06 19:21 38.14047 -121.20539 21534 ft 432 kts 62°
2026-05-06 19:21 38.15377 -121.17112 21847 ft 435 kts 62°
2026-05-06 19:21 38.16724 -121.13635 22132 ft 439 kts 62°
2026-05-06 19:21 38.18059 -121.10175 22534 ft 440 kts 63°
2026-05-06 19:22 38.19275 -121.06615 22866 ft 443 kts 66°
2026-05-06 19:22 38.20327 -121.02919 23169 ft 447 kts 71°
2026-05-06 19:22 38.21122 -120.99078 23495 ft 451 kts 75°
2026-05-06 19:22 38.21747 -120.95173 23817 ft 454 kts 77°
2026-05-06 19:23 38.22325 -120.91214 24128 ft 456 kts 77°
2026-05-06 19:23 38.22895 -120.87266 24451 ft 458 kts 77°
2026-05-06 19:23 38.23466 -120.83285 24740 ft 460 kts 77°
2026-05-06 19:23 38.24034 -120.79318 25031 ft 463 kts 77°
2026-05-06 19:24 38.24611 -120.75258 25332 ft 464 kts 77°
2026-05-06 19:24 38.25182 -120.71220 25634 ft 466 kts 77°
2026-05-06 19:24 38.25745 -120.67219 25900 ft 468 kts 77°
2026-05-06 19:24 38.26320 -120.63116 26176 ft 469 kts 77°
2026-05-06 19:25 38.26884 -120.59077 26680 ft 466 kts 77°
2026-05-06 19:25 38.27441 -120.55068 27220 ft 461 kts 77°
2026-05-06 19:25 38.27997 -120.51054 27615 ft 460 kts 77°
2026-05-06 19:25 38.28548 -120.47073 27923 ft 461 kts 77°
2026-05-06 19:26 38.29103 -120.43064 28275 ft 461 kts 77°
2026-05-06 19:26 38.29654 -120.39067 28598 ft 461 kts 77°
2026-05-06 19:26 38.30204 -120.35066 29029 ft 459 kts 76°
2026-05-06 19:26 38.30756 -120.31037 29369 ft 459 kts 77°
2026-05-06 19:27 38.31299 -120.27065 29744 ft 458 kts 77°
2026-05-06 19:27 38.31839 -120.23097 30138 ft 456 kts 77°
2026-05-06 19:27 38.32375 -120.19154 30522 ft 455 kts 77°
2026-05-06 19:27 38.32911 -120.15198 30848 ft 454 kts 77°
2026-05-06 19:28 38.33442 -120.11265 31254 ft 452 kts 77°
2026-05-06 19:28 38.33969 -120.07352 31551 ft 452 kts 77°
2026-05-06 19:28 38.34497 -120.03434 31879 ft 450 kts 77°
2026-05-06 19:28 38.35026 -119.99488 32210 ft 449 kts 77°
2026-05-06 19:29 38.35549 -119.95576 32516 ft 448 kts 77°
2026-05-06 19:29 38.36067 -119.91693 32821 ft 447 kts 77°
2026-05-06 19:29 38.36586 -119.87794 33104 ft 447 kts 77°
2026-05-06 19:29 38.37101 -119.83916 33293 ft 447 kts 76°
2026-05-06 19:30 38.37615 -119.80045 33303 ft 449 kts 76°
2026-05-06 19:30 38.38649 -119.72199 33316 ft 445 kts 76°
2026-05-06 19:31 38.39661 -119.64471 33317 ft 444 kts 76°
2026-05-06 19:31 38.41173 -119.52877 33317 ft 444 kts 76°
2026-05-06 19:32 38.42175 -119.45136 33313 ft 444 kts 76°
2026-05-06 19:32 38.43175 -119.37375 33314 ft 444 kts 76°
2026-05-06 19:33 38.44167 -119.29636 33315 ft 446 kts 77°
2026-05-06 19:33 38.45156 -119.21863 33313 ft 444 kts 77°
2026-05-06 19:34 38.46134 -119.14133 33313 ft 444 kts 77°
2026-05-06 19:34 38.47111 -119.06375 33312 ft 444 kts 77°
2026-05-06 19:35 38.48088 -118.98582 33315 ft 445 kts 77°
2026-05-06 19:35 38.49057 -118.90808 33302 ft 445 kts 77°
2026-05-06 19:36 38.50013 -118.83084 33308 ft 443 kts 77°
2026-05-06 19:36 38.50968 -118.75331 33293 ft 444 kts 77°
2026-05-06 19:37 38.51922 -118.67545 33275 ft 443 kts 77°
2026-05-06 19:37 38.52707 -118.61094 33263 ft 443 kts 76°
2026-05-06 19:38 38.53798 -118.52097 33246 ft 443 kts 77°
2026-05-06 19:38 38.54732 -118.44337 33250 ft 443 kts 76°
2026-05-06 19:39 38.55659 -118.36593 33259 ft 442 kts 76°
2026-05-06 19:39 38.56587 -118.28808 33267 ft 444 kts 77°
2026-05-06 19:40 38.57501 -118.21085 33260 ft 442 kts 77°
2026-05-06 19:40 38.58416 -118.13322 33261 ft 442 kts 77°
2026-05-06 19:41 38.59323 -118.05585 33261 ft 441 kts 77°
2026-05-06 19:41 38.60222 -117.97868 33258 ft 441 kts 77°
2026-05-06 19:42 38.61118 -117.90138 33256 ft 441 kts 77°
2026-05-06 19:42 38.62012 -117.82382 33258 ft 443 kts 77°
2026-05-06 19:43 38.62900 -117.74620 33261 ft 441 kts 77°
2026-05-06 19:43 38.63781 -117.66878 33266 ft 442 kts 77°
2026-05-06 19:44 38.64655 -117.59154 33271 ft 441 kts 77°
2026-05-06 19:44 38.65524 -117.51417 33278 ft 442 kts 77°
2026-05-06 19:45 38.66394 -117.43624 33281 ft 441 kts 77°
2026-05-06 19:45 38.67252 -117.35895 33283 ft 441 kts 77°
2026-05-06 19:46 38.68126 -117.28187 33280 ft 440 kts 75°
2026-05-06 19:46 38.69387 -117.20560 33284 ft 438 kts 72°
2026-05-06 19:47 38.70742 -117.13013 33290 ft 438 kts 72°
2026-05-06 19:47 38.72073 -117.05387 33289 ft 438 kts 72°
2026-05-06 19:48 38.73371 -116.97819 33288 ft 438 kts 73°
2026-05-06 19:48 38.74661 -116.90221 33281 ft 437 kts 73°
2026-05-06 19:49 38.75941 -116.82631 33280 ft 439 kts 73°
2026-05-06 19:49 38.77212 -116.75047 33288 ft 438 kts 73°
2026-05-06 19:50 38.78488 -116.67393 33283 ft 437 kts 73°
2026-05-06 19:50 38.79750 -116.59797 33294 ft 438 kts 73°
2026-05-06 19:51 38.81010 -116.52177 33287 ft 438 kts 73°
2026-05-06 19:51 38.82263 -116.44559 33288 ft 437 kts 73°
2026-05-06 19:52 38.83506 -116.36973 33292 ft 438 kts 73°
2026-05-06 19:52 38.84753 -116.29331 33291 ft 438 kts 73°
2026-05-06 19:53 38.85989 -116.21719 33287 ft 437 kts 73°
2026-05-06 19:53 38.87223 -116.14088 33300 ft 439 kts 73°
2026-05-06 19:54 38.88448 -116.06480 33286 ft 439 kts 73°
2026-05-06 19:54 38.89678 -115.98807 33297 ft 438 kts 73°
2026-05-06 19:55 38.90889 -115.91211 33294 ft 437 kts 73°
2026-05-06 19:55 38.92106 -115.83558 33303 ft 438 kts 73°
2026-05-06 19:56 38.93312 -115.75935 33293 ft 439 kts 73°
2026-05-06 19:56 38.94517 -115.68272 33301 ft 439 kts 73°
2026-05-06 19:57 38.95719 -115.60602 33278 ft 438 kts 73°
2026-05-06 19:57 38.96905 -115.52999 33291 ft 438 kts 73°
2026-05-06 19:58 38.98095 -115.45343 33293 ft 438 kts 73°
2026-05-06 19:58 38.99277 -115.37699 33289 ft 437 kts 73°
2026-05-06 19:59 39.00454 -115.30049 33281 ft 438 kts 73°
2026-05-06 19:59 39.01629 -115.22388 33271 ft 439 kts 73°
2026-05-06 20:00 39.02799 -115.14712 33269 ft 439 kts 73°
2026-05-06 20:00 39.03963 -115.07040 33265 ft 438 kts 73°
2026-05-06 20:01 39.05116 -114.99404 33261 ft 437 kts 73°
2026-05-06 20:01 39.06267 -114.91747 33264 ft 437 kts 73°
2026-05-06 20:02 39.07412 -114.84106 33263 ft 437 kts 73°
2026-05-06 20:02 39.08555 -114.76443 33265 ft 438 kts 73°
2026-05-06 20:03 39.09697 -114.68750 33258 ft 439 kts 73°
2026-05-06 20:03 39.10834 -114.61038 33248 ft 438 kts 73°
2026-05-06 20:04 39.11960 -114.53361 33241 ft 437 kts 73°
2026-05-06 20:04 39.13075 -114.45731 33235 ft 437 kts 73°
2026-05-06 20:05 39.14194 -114.38033 33229 ft 437 kts 73°
2026-05-06 20:05 39.15308 -114.30346 33232 ft 439 kts 73°
2026-05-06 20:06 39.16420 -114.22625 33218 ft 439 kts 73°
2026-05-06 20:06 39.17525 -114.14915 33223 ft 439 kts 73°
2026-05-06 20:07 39.18620 -114.07231 33204 ft 437 kts 73°
2026-05-06 20:07 39.19703 -113.99598 33213 ft 437 kts 73°
2026-05-06 20:08 39.20793 -113.91888 33210 ft 438 kts 73°
2026-05-06 20:08 39.21869 -113.84220 33211 ft 437 kts 73°
2026-05-06 20:09 39.22953 -113.76474 33209 ft 439 kts 73°
2026-05-06 20:09 39.24018 -113.68808 33206 ft 436 kts 73°
2026-05-06 20:10 39.25085 -113.61101 33210 ft 437 kts 73°
2026-05-06 20:10 39.26142 -113.53429 33207 ft 436 kts 73°
2026-05-06 20:11 39.27196 -113.45732 33200 ft 436 kts 73°
2026-05-06 20:11 39.28245 -113.38035 33204 ft 436 kts 73°
2026-05-06 20:12 39.29285 -113.30366 33201 ft 438 kts 73°
2026-05-06 20:12 39.30353 -113.22653 33197 ft 435 kts 72°
2026-05-06 20:13 39.31626 -113.15043 33198 ft 434 kts 71°
2026-05-06 20:13 39.32925 -113.07478 33193 ft 434 kts 71°
2026-05-06 20:14 39.34202 -112.99912 33193 ft 433 kts 71°
2026-05-06 20:14 39.35472 -112.92326 33194 ft 435 kts 71°
2026-05-06 20:15 39.36735 -112.84704 33195 ft 433 kts 71°
2026-05-06 20:15 39.37985 -112.77124 33195 ft 434 kts 71°
2026-05-06 20:16 39.39238 -112.69492 33193 ft 434 kts 71°
2026-05-06 20:16 39.40476 -112.61902 33193 ft 432 kts 71°
2026-05-06 20:17 39.41705 -112.54346 33191 ft 432 kts 71°
2026-05-06 20:17 39.42930 -112.46779 33188 ft 433 kts 71°
2026-05-06 20:18 39.44162 -112.39132 33193 ft 433 kts 71°
2026-05-06 20:18 39.45379 -112.31542 33198 ft 434 kts 71°
2026-05-06 20:19 39.46591 -112.23955 33197 ft 433 kts 71°
2026-05-06 20:19 39.47802 -112.16349 33193 ft 433 kts 71°
2026-05-06 20:20 39.49007 -112.08733 33198 ft 432 kts 71°
2026-05-06 20:20 39.50203 -112.01142 33194 ft 432 kts 71°
2026-05-06 20:21 39.51395 -111.93549 33190 ft 434 kts 71°
2026-05-06 20:21 39.52583 -111.85924 33181 ft 432 kts 71°
2026-05-06 20:22 39.53769 -111.78297 33181 ft 432 kts 71°
2026-05-06 20:22 39.54945 -111.70704 33179 ft 433 kts 71°
2026-05-06 20:23 39.56124 -111.63057 33181 ft 433 kts 71°
2026-05-06 20:23 39.57291 -111.55442 33185 ft 432 kts 71°
2026-05-06 20:24 39.58450 -111.47852 33193 ft 434 kts 71°
2026-05-06 20:24 39.59610 -111.40217 33186 ft 433 kts 71°
2026-05-06 20:25 39.60764 -111.32588 33178 ft 433 kts 71°
2026-05-06 20:25 39.61917 -111.24934 33162 ft 433 kts 72°
2026-05-06 20:26 39.63060 -111.17303 33162 ft 433 kts 72°
2026-05-06 20:26 39.64202 -111.09637 33169 ft 433 kts 71°
2026-05-06 20:27 39.65337 -111.01984 33172 ft 434 kts 72°
2026-05-06 20:27 39.66458 -110.94379 33184 ft 431 kts 71°
2026-05-06 20:28 39.67581 -110.86741 33186 ft 432 kts 72°
2026-05-06 20:28 39.68701 -110.79087 33193 ft 432 kts 71°